| time (UTC) | temp F | wind direction | speed MPH | gust MPH | rain 1hr in | rain 24hr in | rain mn in | humidity % | barometer mb |
| 20260510075647 | 49 | 58 | 0.0 | 0.0 | 0.00 | 0.00 | 0.00 | 52 | 1019.3 |
| 20260510075145 | 50 | 58 | 0.0 | 0.0 | 0.00 | 0.00 | 0.00 | 51 | 1019.1 |
| 20260510074628 | 50 | 58 | 0.0 | 0.0 | 0.00 | 0.00 | 0.00 | 50 | 1018.9 |
| 20260510074127 | 50 | 58 | 0.0 | 0.0 | 0.00 | 0.00 | 0.00 | 49 | 1018.9 |
| 20260510073649 | 51 | 58 | 0.0 | 1.0 | 0.00 | 0.00 | 0.00 | 49 | 1018.7 |
| 20260510073126 | 51 | 58 | 0.0 | 2.0 | 0.00 | 0.00 | 0.00 | 48 | 1018.7 |
| 20260510072630 | 51 | 79 | 0.0 | 2.0 | 0.00 | 0.00 | 0.00 | 47 | 1018.7 |
| 20260510072130 | 51 | 71 | 0.0 | 2.0 | 0.00 | 0.00 | 0.00 | 48 | 1018.6 |
| 20260510071637 | 52 | 56 | 1.0 | 3.0 | 0.00 | 0.00 | 0.00 | 46 | 1018.6 |
| 20260510071130 | 52 | 50 | 0.0 | 3.0 | 0.00 | 0.00 | 0.00 | 46 | 1018.6 |
| 20260510070618 | 52 | 61 | 2.0 | 3.0 | 0.00 | 0.00 | 0.00 | 46 | 1018.7 |
| 20260510070121 | 52 | 35 | 1.0 | 3.0 | 0.00 | 0.00 | 0.00 | 46 | 1018.5 |
| 20260510065628 | 52 | 70 | 1.0 | 4.0 | 0.00 | 0.00 | 0.00 | 46 | 1018.6 |
| 20260510065127 | 52 | 35 | 1.0 | 4.0 | 0.00 | 0.00 | 0.00 | 47 | 1018.7 |
| 20260510064619 | 52 | 354 | 1.0 | 3.0 | 0.00 | 0.00 | 0.00 | 47 | 1018.6 |
| 20260510064132 | 52 | 14 | 1.0 | 3.0 | 0.00 | 0.00 | 0.00 | 47 | 1018.5 |
| 20260510063619 | 52 | 347 | 1.0 | 3.0 | 0.00 | 0.00 | 0.00 | 48 | 1018.4 |
| 20260510063120 | 52 | 48 | 0.0 | 2.0 | 0.00 | 0.00 | 0.00 | 48 | 1018.4 |
| 20260510062628 | 52 | 54 | 0.0 | 0.0 | 0.00 | 0.00 | 0.00 | 48 | 1018.6 |
| 20260510062126 | 53 | 54 | 0.0 | 1.0 | 0.00 | 0.00 | 0.00 | 48 | 1018.4 |
| 20260510061632 | 53 | 54 | 0.0 | 1.0 | 0.00 | 0.00 | 0.00 | 47 | 1018.5 |
| 20260510061152 | 53 | 54 | 0.0 | 1.0 | 0.00 | 0.00 | 0.00 | 47 | 1018.4 |
| 20260510060621 | 54 | 54 | 0.0 | 2.0 | 0.00 | 0.00 | 0.00 | 45 | 1018.3 |
| 20260510060120 | 54 | 54 | 1.0 | 3.0 | 0.00 | 0.00 | 0.00 | 45 | 1018.1 |
| 20260510055628 | 54 | 352 | 2.0 | 3.0 | 0.00 | 0.00 | 0.00 | 44 | 1017.9 |
| 20260510055145 | 55 | 9 | 1.0 | 4.0 | 0.00 | 0.00 | 0.00 | 44 | 1017.6 |
| 20260510054649 | 55 | 87 | 1.0 | 4.0 | 0.00 | 0.00 | 0.00 | 43 | 1017.5 |
| 20260510054132 | 55 | 50 | 1.0 | 4.0 | 0.00 | 0.00 | 0.00 | 43 | 1017.3 |
| 20260510053619 | 55 | 68 | 1.0 | 3.0 | 0.00 | 0.00 | 0.00 | 43 | 1017.1 |
| 20260510053121 | 55 | 26 | 1.0 | 5.0 | 0.00 | 0.00 | 0.00 | 43 | 1017.1 |
| 20260510052628 | 56 | 47 | 2.0 | 6.0 | 0.00 | 0.00 | 0.00 | 43 | 1017.1 |
| 20260510052129 | 56 | 49 | 3.0 | 6.0 | 0.00 | 0.00 | 0.00 | 42 | 1017.0 |
| 20260510051633 | 56 | 31 | 3.0 | 6.0 | 0.00 | 0.00 | 0.00 | 42 | 1016.9 |
| 20260510051152 | 56 | 31 | 2.0 | 6.0 | 0.00 | 0.00 | 0.00 | 42 | 1017.8 |
| 20260510050655 | 56 | 54 | 1.0 | 4.0 | 0.00 | 0.00 | 0.00 | 42 | 1017.8 |
| 20260510050118 | 57 | 51 | 0.0 | 4.0 | 0.00 | 0.00 | 0.00 | 42 | 1017.7 |
| 20260510045618 | 57 | 40 | 3.0 | 7.0 | 0.00 | 0.00 | 0.00 | 41 | 1017.6 |
| 20260510045137 | 57 | 358 | 2.0 | 7.0 | 0.00 | 0.00 | 0.00 | 41 | 1017.5 |
| 20260510044624 | 57 | 23 | 2.0 | 5.0 | 0.00 | 0.00 | 0.00 | 41 | 1017.4 |
| 20260510044120 | 58 | 25 | 2.0 | 6.0 | 0.00 | 0.00 | 0.00 | 41 | 1017.4 |
| 20260510043645 | 58 | 85 | 2.0 | 6.0 | 0.00 | 0.00 | 0.00 | 41 | 1017.3 |
| 20260510043123 | 58 | 46 | 2.0 | 6.0 | 0.00 | 0.00 | 0.00 | 40 | 1017.2 |
| 20260510042626 | 58 | 40 | 3.0 | 6.0 | 0.00 | 0.00 | 0.00 | 40 | 1017.1 |
| 20260510042127 | 59 | 62 | 1.0 | 5.0 | 0.00 | 0.00 | 0.00 | 40 | 1016.9 |
| 20260510041632 | 59 | 42 | 1.0 | 6.0 | 0.00 | 0.00 | 0.00 | 40 | 1016.9 |
| 20260510041133 | 59 | 9 | 3.0 | 6.0 | 0.00 | 0.00 | 0.00 | 40 | 1016.9 |
| 20260510040619 | 59 | 33 | 2.0 | 5.0 | 0.00 | 0.00 | 0.00 | 40 | 1016.8 |
| 20260510040138 | 59 | 38 | 2.0 | 5.0 | 0.00 | 0.00 | 0.00 | 40 | 1016.7 |
| 20260510035619 | 60 | 101 | 2.0 | 5.0 | 0.00 | 0.00 | 0.00 | 40 | 1016.6 |
| 20260510035156 | 60 | 48 | 2.0 | 7.0 | 0.00 | 0.00 | 0.00 | 39 | 1016.5 |
| 20260510034622 | 60 | 38 | 3.0 | 7.0 | 0.00 | 0.00 | 0.00 | 39 | 1016.4 |
| 20260510034119 | 60 | 31 | 3.0 | 7.0 | 0.00 | 0.00 | 0.00 | 39 | 1016.4 |
| 20260510033624 | 61 | 121 | 2.0 | 6.0 | 0.00 | 0.00 | 0.00 | 39 | 1016.3 |
| 20260510033124 | 61 | 19 | 3.0 | 10.0 | 0.00 | 0.00 | 0.00 | 39 | 1016.3 |
| 20260510032627 | 61 | 80 | 1.0 | 10.0 | 0.00 | 0.00 | 0.00 | 39 | 1016.2 |
| 20260510032126 | 61 | 37 | 4.0 | 8.0 | 0.00 | 0.00 | 0.00 | 38 | 1016.2 |
| 20260510031633 | 61 | 28 | 4.0 | 7.0 | 0.00 | 0.00 | 0.00 | 39 | 1016.0 |
| 20260510031132 | 62 | 40 | 2.0 | 7.0 | 0.00 | 0.00 | 0.00 | 39 | 1015.8 |
| 20260510030616 | 62 | 34 | 2.0 | 6.0 | 0.00 | 0.00 | 0.00 | 39 | 1015.8 |
| 20260510030135 | 62 | 60 | 2.0 | 6.0 | 0.00 | 0.00 | 0.00 | 39 | 1015.7 |
| 20260510025618 | 62 | 32 | 1.0 | 8.0 | 0.00 | 0.00 | 0.00 | 39 | 1015.6 |
| 20260510025117 | 62 | 36 | 3.0 | 8.0 | 0.00 | 0.00 | 0.00 | 39 | 1015.4 |
| 20260510024625 | 62 | 41 | 1.0 | 4.0 | 0.00 | 0.00 | 0.00 | 39 | 1015.2 |
| 20260510024143 | 62 | 52 | 2.0 | 5.0 | 0.00 | 0.00 | 0.00 | 39 | 1015.1 |
| 20260510023630 | 63 | 58 | 1.0 | 5.0 | 0.00 | 0.00 | 0.00 | 39 | 1015.0 |
| 20260510023128 | 63 | 41 | 1.0 | 5.0 | 0.00 | 0.00 | 0.00 | 39 | 1014.9 |
| 20260510022634 | 63 | 57 | 1.0 | 4.0 | 0.00 | 0.00 | 0.00 | 39 | 1014.7 |
| 20260510022113 | 63 | 44 | 2.0 | 5.0 | 0.00 | 0.00 | 0.00 | 38 | 1014.6 |
| 20260510021619 | 64 | 63 | 1.0 | 5.0 | 0.00 | 0.00 | 0.00 | 38 | 1014.5 |
| 20260510021117 | 64 | 357 | 2.0 | 5.0 | 0.00 | 0.00 | 0.00 | 38 | 1014.4 |
| 20260510020621 | 64 | 2 | 1.0 | 4.0 | 0.00 | 0.00 | 0.00 | 39 | 1014.2 |
| 20260510020120 | 64 | 14 | 1.0 | 4.0 | 0.00 | 0.00 | 0.00 | 38 | 1014.2 |
| 20260510015624 | 65 | 42 | 1.0 | 5.0 | 0.00 | 0.00 | 0.00 | 38 | 1014.1 |
| 20260510015122 | 65 | 50 | 1.0 | 5.0 | 0.00 | 0.00 | 0.00 | 37 | 1014.0 |
| 20260510014626 | 65 | 29 | 1.0 | 3.0 | 0.00 | 0.00 | 0.00 | 38 | 1013.9 |
| 20260510014124 | 66 | 25 | 2.0 | 7.0 | 0.00 | 0.00 | 0.00 | 37 | 1013.7 |
| 20260510013628 | 66 | 38 | 3.0 | 7.0 | 0.00 | 0.00 | 0.00 | 37 | 1013.6 |
| 20260510013131 | 66 | 52 | 4.0 | 6.0 | 0.00 | 0.00 | 0.00 | 36 | 1013.5 |
| 20260510012618 | 67 | 56 | 2.0 | 6.0 | 0.00 | 0.00 | 0.00 | 37 | 1013.4 |
| 20260510012152 | 67 | 68 | 3.0 | 8.0 | 0.00 | 0.00 | 0.00 | 37 | 1013.3 |
| 20260510011641 | 67 | 38 | 3.0 | 8.0 | 0.00 | 0.00 | 0.00 | 37 | 1013.2 |
| 20260510011118 | 68 | 327 | 3.0 | 6.0 | 0.00 | 0.00 | 0.00 | 37 | 1013.1 |
| 20260510010621 | 68 | 9 | 2.0 | 7.0 | 0.00 | 0.00 | 0.00 | 37 | 1013.0 |
| 20260510010126 | 68 | 33 | 2.0 | 8.0 | 0.00 | 0.00 | 0.00 | 38 | 1012.9 |
| 20260510005632 | 68 | 45 | 5.0 | 8.0 | 0.00 | 0.00 | 0.00 | 39 | 1012.8 |
| 20260510005117 | 68 | 14 | 5.0 | 8.0 | 0.00 | 0.00 | 0.00 | 38 | 1012.8 |
| 20260510004647 | 68 | 59 | 5.0 | 7.0 | 0.00 | 0.00 | 0.00 | 39 | 1012.8 |
| 20260510004125 | 69 | 35 | 2.0 | 6.0 | 0.00 | 0.00 | 0.00 | 41 | 1012.7 |
| 20260510003635 | 69 | 19 | 1.0 | 6.0 | 0.00 | 0.00 | 0.00 | 42 | 1012.6 |
| 20260510003132 | 68 | 76 | 3.0 | 6.0 | 0.00 | 0.00 | 0.00 | 41 | 1012.5 |
| 20260510002644 | 68 | 42 | 2.0 | 6.0 | 0.00 | 0.00 | 0.00 | 41 | 1012.5 |
| 20260510002125 | 69 | 19 | 3.0 | 6.0 | 0.00 | 0.00 | 0.00 | 41 | 1012.4 |
| 20260510001631 | 69 | 83 | 2.0 | 8.0 | 0.00 | 0.00 | 0.00 | 42 | 1012.4 |
| 20260510001132 | 69 | 337 | 4.0 | 8.0 | 0.00 | 0.00 | 0.00 | 41 | 1012.5 |
| 20260510000640 | 69 | 67 | 2.0 | 6.0 | 0.00 | 0.00 | 0.00 | 42 | 1012.4 |
| 20260510000142 | 69 | 48 | 2.0 | 9.0 | 0.00 | 0.00 | 0.00 | 42 | 1012.3 |
| 20260509235628 | 69 | 19 | 4.0 | 9.0 | 0.00 | 0.00 | 0.00 | 42 | 1012.3 |
| 20260509235145 | 69 | 69 | 1.0 | 5.0 | 0.00 | 0.00 | 0.00 | 43 | 1012.3 |
| 20260509234631 | 69 | 237 | 1.0 | 6.0 | 0.00 | 0.00 | 0.00 | 44 | 1012.4 |
| 20260509234130 | 69 | 43 | 4.0 | 6.0 | 0.00 | 0.00 | 0.00 | 45 | 1012.4 |
| 20260509233634 | 69 | 56 | 2.0 | 5.0 | 0.00 | 0.00 | 0.00 | 46 | 1012.3 |
| 20260509233153 | 69 | 54 | 3.0 | 5.0 | 0.00 | 0.00 | 0.00 | 46 | 1012.3 |
| 20260509232640 | 69 | 19 | 0.0 | 3.0 | 0.00 | 0.00 | 0.00 | 46 | 1012.2 |
| 20260509232138 | 69 | 268 | 1.0 | 5.0 | 0.00 | 0.00 | 0.00 | 46 | 1012.3 |
| 20260509231641 | 69 | 27 | 3.0 | 5.0 | 0.00 | 0.00 | 0.00 | 46 | 1012.2 |
| 20260509231117 | 69 | 83 | 3.0 | 6.0 | 0.00 | 0.00 | 0.00 | 45 | 1012.2 |
| 20260509230624 | 69 | 23 | 3.0 | 6.0 | 0.00 | 0.00 | 0.00 | 45 | 1012.2 |
| 20260509230125 | 70 | 2 | 1.0 | 5.0 | 0.00 | 0.00 | 0.00 | 46 | 1012.2 |
| 20260509225632 | 70 | 56 | 3.0 | 4.0 | 0.00 | 0.00 | 0.00 | 45 | 1012.1 |
| 20260509225130 | 70 | 335 | 0.0 | 6.0 | 0.00 | 0.00 | 0.00 | 46 | 1012.1 |
| 20260509224634 | 70 | 19 | 1.0 | 8.0 | 0.00 | 0.00 | 0.00 | 46 | 1012.0 |
| 20260509224132 | 70 | 349 | 2.0 | 8.0 | 0.00 | 0.00 | 0.00 | 46 | 1012.1 |
| 20260509223619 | 70 | 324 | 4.0 | 7.0 | 0.00 | 0.00 | 0.00 | 46 | 1012.0 |
| 20260509223136 | 70 | 27 | 3.0 | 7.0 | 0.00 | 0.00 | 0.00 | 45 | 1011.9 |
| 20260509222622 | 70 | 49 | 3.0 | 6.0 | 0.00 | 0.00 | 0.00 | 45 | 1011.9 |
| 20260509222122 | 70 | 341 | 3.0 | 8.0 | 0.00 | 0.00 | 0.00 | 46 | 1011.9 |
| 20260509221630 | 70 | 1 | 2.0 | 8.0 | 0.00 | 0.00 | 0.00 | 47 | 1011.7 |
| 20260509221128 | 70 | 9 | 1.0 | 6.0 | 0.00 | 0.00 | 0.00 | 47 | 1011.7 |
| 20260509220632 | 69 | 36 | 2.0 | 8.0 | 0.00 | 0.00 | 0.00 | 47 | 1011.7 |
| 20260509220132 | 69 | 346 | 2.0 | 9.0 | 0.00 | 0.00 | 0.00 | 47 | 1011.7 |
| 20260509215630 | 69 | 63 | 3.0 | 9.0 | 0.00 | 0.00 | 0.00 | 47 | 1011.6 |
| 20260509215126 | 70 | 54 | 5.0 | 8.0 | 0.00 | 0.00 | 0.00 | 46 | 1011.6 |
| 20260509214631 | 70 | 9 | 4.0 | 11.0 | 0.00 | 0.00 | 0.00 | 46 | 1011.6 |
| 20260509214129 | 70 | 47 | 3.0 | 10.0 | 0.00 | 0.00 | 0.00 | 45 | 1011.5 |
| 20260509213624 | 70 | 58 | 2.0 | 9.0 | 0.00 | 0.00 | 0.00 | 46 | 1011.5 |
| 20260509213126 | 70 | 266 | 3.0 | 9.0 | 0.00 | 0.00 | 0.00 | 45 | 1011.4 |
| 20260509212629 | 71 | 24 | 3.0 | 8.0 | 0.00 | 0.00 | 0.00 | 44 | 1011.3 |
| 20260509212131 | 71 | 9 | 2.0 | 11.0 | 0.00 | 0.00 | 0.00 | 44 | 1011.3 |
| 20260509211619 | 71 | 74 | 5.0 | 11.0 | 0.00 | 0.00 | 0.00 | 43 | 1011.1 |
| 20260509211117 | 72 | 43 | 6.0 | 12.0 | 0.00 | 0.00 | 0.00 | 42 | 1011.2 |
| 20260509210646 | 71 | 9 | 4.0 | 16.0 | 0.00 | 0.00 | 0.00 | 42 | 1011.1 |
| 20260509210125 | 72 | 75 | 10.0 | 16.0 | 0.00 | 0.00 | 0.00 | 40 | 1011.1 |
| 20260509205652 | 72 | 30 | 5.0 | 9.0 | 0.00 | 0.00 | 0.00 | 39 | 1011.0 |
| 20260509205151 | 72 | 293 | 4.0 | 12.0 | 0.00 | 0.00 | 0.00 | 39 | 1011.0 |
| 20260509204654 | 72 | 180 | 3.0 | 13.0 | 0.00 | 0.00 | 0.00 | 40 | 1010.9 |
| 20260509204133 | 72 | 92 | 6.0 | 13.0 | 0.00 | 0.00 | 0.00 | 39 | 1010.8 |
| 20260509203621 | 72 | 69 | 3.0 | 16.0 | 0.00 | 0.00 | 0.00 | 41 | 1010.7 |
| 20260509203118 | 72 | 39 | 9.0 | 17.0 | 0.00 | 0.00 | 0.00 | 41 | 1010.8 |
| 20260509202626 | 73 | 34 | 6.0 | 17.0 | 0.00 | 0.00 | 0.00 | 39 | 1010.6 |
| 20260509202123 | 73 | 119 | 5.0 | 16.0 | 0.00 | 0.00 | 0.00 | 39 | 1010.5 |
| 20260509201625 | 74 | 92 | 3.0 | 11.0 | 0.00 | 0.00 | 0.00 | 37 | 1010.4 |
| 20260509201124 | 75 | 338 | 4.0 | 12.0 | 0.00 | 0.00 | 0.00 | 35 | 1010.3 |
| 20260509200628 | 75 | 71 | 7.0 | 12.0 | 0.00 | 0.00 | 0.00 | 35 | 1010.2 |
| 20260509200136 | 75 | 77 | 7.0 | 11.0 | 0.00 | 0.00 | 0.00 | 35 | 1010.1 |
| 20260509195621 | 75 | 58 | 6.0 | 12.0 | 0.00 | 0.00 | 0.00 | 34 | 1010.1 |
| 20260509195117 | 76 | 64 | 5.0 | 12.0 | 0.00 | 0.00 | 0.00 | 33 | 1010.0 |
| 20260509194621 | 75 | 19 | 5.0 | 9.0 | 0.00 | 0.00 | 0.00 | 34 | 1009.8 |
| 20260509194122 | 75 | 75 | 3.0 | 12.0 | 0.00 | 0.00 | 0.00 | 33 | 1009.8 |
| 20260509193645 | 75 | 305 | 6.0 | 12.0 | 0.00 | 0.00 | 0.00 | 31 | 1009.7 |
| 20260509193142 | 76 | 62 | 4.0 | 14.0 | 0.00 | 0.00 | 0.00 | 29 | 1009.7 |
| 20260509192626 | 77 | 32 | 7.0 | 14.0 | 0.00 | 0.00 | 0.00 | 28 | 1009.7 |
| 20260509192124 | 77 | 30 | 1.0 | 12.0 | 0.00 | 0.00 | 0.00 | 31 | 1009.6 |
| 20260509191626 | 77 | 329 | 4.0 | 12.0 | 0.00 | 0.00 | 0.00 | 29 | 1009.6 |
| 20260509191124 | 77 | 29 | 2.0 | 8.0 | 0.00 | 0.00 | 0.00 | 29 | 1009.5 |
| 20260509190632 | 76 | 31 | 2.0 | 9.0 | 0.00 | 0.00 | 0.00 | 28 | 1009.6 |
| 20260509190134 | 77 | 254 | 4.0 | 9.0 | 0.00 | 0.00 | 0.00 | 28 | 1009.6 |
| 20260509185617 | 77 | 337 | 2.0 | 7.0 | 0.00 | 0.00 | 0.00 | 28 | 1009.5 |
| 20260509185117 | 77 | 121 | 3.0 | 6.0 | 0.00 | 0.00 | 0.00 | 30 | 1009.6 |
| 20260509184624 | 76 | 316 | 4.0 | 8.0 | 0.00 | 0.00 | 0.00 | 31 | 1009.6 |
| 20260509184125 | 76 | 335 | 3.0 | 13.0 | 0.00 | 0.00 | 0.00 | 30 | 1009.7 |
| 20260509183628 | 76 | 40 | 5.0 | 13.0 | 0.00 | 0.00 | 0.00 | 30 | 1009.6 |
| 20260509183128 | 77 | 32 | 4.0 | 10.0 | 0.00 | 0.00 | 0.00 | 29 | 1009.6 |
| 20260509182633 | 76 | 77 | 4.0 | 10.0 | 0.00 | 0.00 | 0.00 | 30 | 1009.6 |
| 20260509182134 | 76 | 79 | 3.0 | 10.0 | 0.00 | 0.00 | 0.00 | 32 | 1009.5 |
| 20260509181622 | 76 | 90 | 3.0 | 12.0 | 0.00 | 0.00 | 0.00 | 29 | 1009.4 |
| 20260509181121 | 76 | 5 | 3.0 | 12.0 | 0.00 | 0.00 | 0.00 | 30 | 1009.4 |
| 20260509180629 | 75 | 327 | 3.0 | 8.0 | 0.00 | 0.00 | 0.00 | 29 | 1009.3 |
| 20260509180131 | 75 | 58 | 4.0 | 8.0 | 0.00 | 0.00 | 0.00 | 30 | 1009.3 |
| 20260509175635 | 74 | 101 | 2.0 | 8.0 | 0.00 | 0.00 | 0.00 | 29 | 1009.4 |
| 20260509175135 | 74 | 277 | 3.0 | 6.0 | 0.00 | 0.00 | 0.00 | 31 | 1009.4 |
| 20260509174640 | 74 | 77 | 2.0 | 6.0 | 0.00 | 0.00 | 0.00 | 32 | 1009.5 |
| 20260509174117 | 74 | 346 | 3.0 | 11.0 | 0.00 | 0.00 | 0.00 | 33 | 1009.5 |
| 20260509173622 | 74 | 88 | 4.0 | 11.0 | 0.00 | 0.00 | 0.00 | 30 | 1009.6 |
| 20260509173117 | 74 | 9 | 1.0 | 7.0 | 0.00 | 0.00 | 0.00 | 32 | 1009.5 |
| 20260509172644 | 73 | 37 | 4.0 | 9.0 | 0.00 | 0.00 | 0.00 | 31 | 1009.6 |
| 20260509172121 | 73 | 14 | 4.0 | 9.0 | 0.00 | 0.00 | 0.00 | 31 | 1009.8 |
| 20260509171625 | 73 | 56 | 3.0 | 8.0 | 0.00 | 0.00 | 0.00 | 31 | 1009.7 |
| 20260509171123 | 73 | 19 | 2.0 | 6.0 | 0.00 | 0.00 | 0.00 | 33 | 1009.8 |
| 20260509170647 | 73 | 271 | 3.0 | 6.0 | 0.00 | 0.00 | 0.00 | 31 | 1009.8 |
| 20260509170142 | 73 | 210 | 2.0 | 6.0 | 0.00 | 0.00 | 0.00 | 32 | 1009.7 |
| 20260509165624 | 72 | 79 | 2.0 | 7.0 | 0.00 | 0.00 | 0.00 | 32 | 1009.7 |
| 20260509165121 | 72 | 54 | 3.0 | 8.0 | 0.00 | 0.00 | 0.00 | 33 | 1009.7 |
| 20260509164626 | 72 | 14 | 5.0 | 8.0 | 0.00 | 0.00 | 0.00 | 32 | 1009.5 |
| 20260509164146 | 72 | 9 | 2.0 | 6.0 | 0.00 | 0.00 | 0.00 | 34 | 1009.6 |
| 20260509163628 | 71 | 336 | 3.0 | 6.0 | 0.00 | 0.00 | 0.00 | 35 | 1009.6 |
| 20260509163125 | 71 | 360 | 4.0 | 10.0 | 0.00 | 0.00 | 0.00 | 34 | 1009.6 |
| 20260509162651 | 71 | 24 | 3.0 | 12.0 | 0.00 | 0.00 | 0.00 | 34 | 1009.6 |
| 20260509162131 | 71 | 76 | 4.0 | 8.0 | 0.00 | 0.00 | 0.00 | 33 | 1009.6 |
| 20260509161620 | 71 | 71 | 4.0 | 8.0 | 0.00 | 0.00 | 0.00 | 34 | 1009.5 |
| 20260509161142 | 71 | 262 | 0.0 | 10.0 | 0.00 | 0.00 | 0.00 | 35 | 1009.5 |
| 20260509160644 | 70 | 325 | 3.0 | 10.0 | 0.00 | 0.00 | 0.00 | 35 | 1009.4 |
| 20260509160147 | 70 | 63 | 3.0 | 6.0 | 0.00 | 0.00 | 0.00 | 36 | 1009.6 |
| 20260509155650 | 70 | 92 | 2.0 | 10.0 | 0.00 | 0.00 | 0.00 | 37 | 1009.6 |
| 20260509155148 | 70 | 53 | 3.0 | 10.0 | 0.00 | 0.00 | 0.00 | 36 | 1009.7 |
| 20260509154635 | 69 | 50 | 4.0 | 8.0 | 0.00 | 0.00 | 0.00 | 37 | 1010.0 |
| 20260509154132 | 69 | 291 | 3.0 | 8.0 | 0.00 | 0.00 | 0.00 | 36 | 1009.9 |
| 20260509153634 | 70 | 350 | 3.0 | 9.0 | 0.00 | 0.00 | 0.00 | 37 | 1010.0 |
| 20260509153135 | 69 | 349 | 4.0 | 10.0 | 0.00 | 0.00 | 0.00 | 37 | 1010.1 |
| 20260509152619 | 69 | 48 | 2.0 | 8.0 | 0.00 | 0.00 | 0.00 | 39 | 1010.0 |
| 20260509152116 | 68 | 317 | 2.0 | 9.0 | 0.00 | 0.00 | 0.00 | 39 | 1010.0 |
| 20260509151620 | 68 | 353 | 4.0 | 10.0 | 0.00 | 0.00 | 0.00 | 40 | 1010.0 |
| 20260509151121 | 68 | 262 | 6.0 | 11.0 | 0.00 | 0.00 | 0.00 | 40 | 1009.9 |
| 20260509150647 | 69 | 300 | 6.0 | 11.0 | 0.00 | 0.00 | 0.00 | 39 | 1009.7 |
| 20260509150123 | 69 | 111 | 4.0 | 9.0 | 0.00 | 0.00 | 0.00 | 40 | 1009.8 |
| 20260509145650 | 69 | 56 | 6.0 | 11.0 | 0.00 | 0.00 | 0.00 | 38 | 1009.5 |
| 20260509145128 | 68 | 49 | 3.0 | 11.0 | 0.00 | 0.00 | 0.00 | 41 | 1009.6 |
| 20260509144632 | 68 | 258 | 3.0 | 9.0 | 0.00 | 0.00 | 0.00 | 40 | 1008.8 |
| 20260509144133 | 67 | 311 | 6.0 | 9.0 | 0.00 | 0.00 | 0.00 | 42 | 1008.6 |
| 20260509143617 | 66 | 248 | 2.0 | 7.0 | 0.00 | 0.00 | 0.00 | 44 | 1008.6 |
| 20260509143116 | 66 | 242 | 4.0 | 7.0 | 0.00 | 0.00 | 0.00 | 43 | 1008.7 |
| 20260509142624 | 65 | 260 | 4.0 | 7.0 | 0.00 | 0.00 | 0.00 | 45 | 1008.7 |
| 20260509142121 | 65 | 265 | 2.0 | 6.0 | 0.00 | 0.00 | 0.00 | 47 | 1008.8 |
| 20260509141624 | 64 | 239 | 2.0 | 7.0 | 0.00 | 0.00 | 0.00 | 48 | 1008.9 |
| 20260509141122 | 63 | 225 | 4.0 | 7.0 | 0.00 | 0.00 | 0.00 | 49 | 1008.8 |
| 20260509140645 | 62 | 237 | 2.0 | 5.0 | 0.00 | 0.00 | 0.00 | 52 | 1008.8 |
| 20260509140125 | 61 | 229 | 2.0 | 4.0 | 0.00 | 0.00 | 0.00 | 53 | 1008.9 |
| 20260509135627 | 61 | 282 | 1.0 | 5.0 | 0.00 | 0.00 | 0.00 | 54 | 1008.9 |
| 20260509135128 | 60 | 225 | 3.0 | 5.0 | 0.00 | 0.00 | 0.00 | 55 | 1008.9 |
| 20260509134618 | 59 | 198 | 1.0 | 3.0 | 0.00 | 0.00 | 0.00 | 55 | 1008.7 |
| 20260509134132 | 59 | 233 | 2.0 | 5.0 | 0.00 | 0.00 | 0.00 | 57 | 1008.8 |
| 20260509133623 | 58 | 207 | 2.0 | 5.0 | 0.00 | 0.00 | 0.00 | 57 | 1008.8 |
| 20260509133125 | 58 | 239 | 2.0 | 4.0 | 0.00 | 0.00 | 0.00 | 58 | 1008.9 |
| 20260509132629 | 57 | 233 | 2.0 | 3.0 | 0.00 | 0.00 | 0.00 | 59 | 1008.7 |
| 20260509132126 | 56 | 229 | 1.0 | 3.0 | 0.00 | 0.00 | 0.00 | 60 | 1008.8 |
| 20260509131635 | 56 | 257 | 1.0 | 3.0 | 0.00 | 0.00 | 0.00 | 60 | 1008.8 |
| 20260509131137 | 55 | 229 | 1.0 | 3.0 | 0.00 | 0.00 | 0.00 | 61 | 1008.8 |
| 20260509130623 | 55 | 230 | 3.0 | 3.0 | 0.00 | 0.00 | 0.00 | 62 | 1008.8 |
| 20260509130123 | 54 | 57 | 1.0 | 2.0 | 0.00 | 0.00 | 0.00 | 64 | 1008.7 |
| 20260509125626 | 53 | 57 | 0.0 | 3.0 | 0.00 | 0.00 | 0.00 | 66 | 1008.8 |
| 20260509125128 | 52 | 57 | 1.0 | 3.0 | 0.00 | 0.00 | 0.00 | 67 | 1008.8 |
| 20260509124632 | 52 | 57 | 1.0 | 2.0 | 0.00 | 0.00 | 0.00 | 67 | 1008.8 |
| 20260509124128 | 51 | 57 | 1.0 | 2.0 | 0.00 | 0.00 | 0.00 | 69 | 1008.8 |
| 20260509123633 | 50 | 57 | 0.0 | 2.0 | 0.00 | 0.00 | 0.00 | 70 | 1008.8 |
| 20260509123132 | 50 | 57 | 1.0 | 2.0 | 0.00 | 0.00 | 0.00 | 72 | 1008.8 |
| 20260509122623 | 49 | 57 | 0.0 | 2.0 | 0.00 | 0.00 | 0.00 | 74 | 1008.7 |
| 20260509122124 | 48 | 57 | 0.0 | 2.0 | 0.00 | 0.00 | 0.00 | 75 | 1008.7 |
| 20260509121627 | 47 | 57 | 0.0 | 1.0 | 0.00 | 0.00 | 0.00 | 76 | 1008.7 |
| 20260509121143 | 47 | 57 | 0.0 | 0.0 | 0.00 | 0.00 | 0.00 | 78 | 1008.7 |
| 20260509120626 | 47 | 57 | 0.0 | 0.0 | 0.00 | 0.00 | 0.00 | 78 | 1008.7 |
| 20260509120125 | 47 | 57 | 0.0 | 0.0 | 0.00 | 0.00 | 0.00 | 77 | 1008.5 |
| 20260509115630 | 47 | 57 | 0.0 | 0.0 | 0.00 | 0.00 | 0.00 | 77 | 1008.5 |
| 20260509115133 | 47 | 57 | 0.0 | 0.0 | 0.00 | 0.00 | 0.00 | 76 | 1008.4 |
| 20260509114617 | 47 | 57 | 0.0 | 0.0 | 0.00 | 0.00 | 0.00 | 76 | 1008.3 |
| 20260509114134 | 47 | 57 | 0.0 | 0.0 | 0.00 | 0.00 | 0.00 | 76 | 1008.3 |
| 20260509113620 | 47 | 57 | 0.0 | 0.0 | 0.00 | 0.00 | 0.00 | 76 | 1008.3 |
| 20260509113119 | 46 | 57 | 0.0 | 0.0 | 0.00 | 0.00 | 0.00 | 76 | 1008.3 |
| 20260509112647 | 46 | 57 | 0.0 | 0.0 | 0.00 | 0.00 | 0.00 | 76 | 1008.2 |
| 20260509112127 | 46 | 57 | 0.0 | 0.0 | 0.00 | 0.00 | 0.00 | 76 | 1008.2 |
| 20260509111652 | 46 | 57 | 0.0 | 0.0 | 0.00 | 0.00 | 0.00 | 76 | 1008.2 |
| 20260509111131 | 46 | 57 | 0.0 | 0.0 | 0.00 | 0.00 | 0.00 | 76 | 1008.1 |
| 20260509110618 | 46 | 57 | 0.0 | 0.0 | 0.00 | 0.00 | 0.00 | 76 | 1008.1 |
| 20260509110117 | 46 | 57 | 0.0 | 0.0 | 0.00 | 0.00 | 0.00 | 76 | 1008.1 |
| 20260509105622 | 46 | 57 | 0.0 | 0.0 | 0.00 | 0.00 | 0.00 | 76 | 1008.0 |
| 20260509105125 | 46 | 57 | 0.0 | 0.0 | 0.00 | 0.00 | 0.00 | 75 | 1008.1 |
| 20260509104632 | 47 | 57 | 0.0 | 0.0 | 0.00 | 0.00 | 0.00 | 75 | 1008.1 |
| 20260509104115 | 47 | 57 | 0.0 | 0.0 | 0.00 | 0.00 | 0.00 | 75 | 1008.1 |
| 20260509103625 | 47 | 57 | 0.0 | 0.0 | 0.00 | 0.00 | 0.00 | 75 | 1008.1 |
| 20260509103122 | 47 | 57 | 0.0 | 0.0 | 0.00 | 0.00 | 0.00 | 75 | 1008.2 |
| 20260509102625 | 47 | 57 | 0.0 | 0.0 | 0.00 | 0.00 | 0.00 | 75 | 1008.1 |
| 20260509102121 | 47 | 57 | 0.0 | 0.0 | 0.00 | 0.00 | 0.00 | 74 | 1008.1 |
| 20260509101628 | 47 | 57 | 0.0 | 0.0 | 0.00 | 0.00 | 0.00 | 73 | 1008.1 |
| 20260509101125 | 47 | 57 | 0.0 | 0.0 | 0.00 | 0.00 | 0.00 | 73 | 1008.1 |
| 20260509100650 | 47 | 57 | 0.0 | 0.0 | 0.00 | 0.00 | 0.00 | 73 | 1008.1 |
| 20260509100128 | 47 | 57 | 0.0 | 0.0 | 0.00 | 0.00 | 0.00 | 73 | 1008.2 |
| 20260509095632 | 47 | 57 | 0.0 | 1.0 | 0.00 | 0.00 | 0.00 | 73 | 1008.2 |
| 20260509095134 | 47 | 57 | 0.0 | 1.0 | 0.00 | 0.00 | 0.00 | 73 | 1008.1 |
| 20260509094658 | 48 | 57 | 0.0 | 0.0 | 0.00 | 0.00 | 0.00 | 72 | 1008.2 |
| 20260509094120 | 48 | 57 | 0.0 | 0.0 | 0.00 | 0.00 | 0.00 | 71 | 1008.2 |
| 20260509093627 | 48 | 57 | 0.0 | 0.0 | 0.00 | 0.00 | 0.00 | 70 | 1008.1 |
| 20260509093125 | 48 | 57 | 0.0 | 0.0 | 0.00 | 0.00 | 0.00 | 70 | 1008.1 |
| 20260509092648 | 48 | 57 | 0.0 | 0.0 | 0.00 | 0.00 | 0.00 | 69 | 1008.0 |
| 20260509092126 | 48 | 57 | 0.0 | 0.0 | 0.00 | 0.00 | 0.00 | 69 | 1008.0 |
| 20260509091633 | 48 | 57 | 0.0 | 0.0 | 0.00 | 0.00 | 0.00 | 70 | 1008.0 |
| 20260509091132 | 48 | 57 | 0.0 | 0.0 | 0.00 | 0.00 | 0.00 | 69 | 1008.1 |
| 20260509090619 | 49 | 57 | 0.0 | 0.0 | 0.00 | 0.00 | 0.00 | 68 | 1008.1 |
| 20260509090142 | 49 | 57 | 0.0 | 0.0 | 0.00 | 0.00 | 0.00 | 68 | 1008.0 |
| 20260509085628 | 49 | 57 | 0.0 | 0.0 | 0.00 | 0.00 | 0.00 | 66 | 1008.0 |
| 20260509085127 | 50 | 57 | 0.0 | 0.0 | 0.00 | 0.00 | 0.00 | 66 | 1008.0 |
| 20260509084633 | 50 | 57 | 0.0 | 0.0 | 0.00 | 0.00 | 0.00 | 65 | 1007.8 |
| 20260509084134 | 50 | 57 | 0.0 | 1.0 | 0.00 | 0.00 | 0.00 | 65 | 1007.8 |
| 20260509083619 | 50 | 57 | 0.0 | 1.0 | 0.00 | 0.00 | 0.00 | 66 | 1007.9 |
| 20260509083117 | 50 | 57 | 0.0 | 0.0 | 0.00 | 0.00 | 0.00 | 65 | 1007.9 |
| 20260509082625 | 51 | 57 | 0.0 | 0.0 | 0.00 | 0.00 | 0.00 | 64 | 1007.9 |
| 20260509082143 | 51 | 57 | 0.0 | 0.0 | 0.00 | 0.00 | 0.00 | 64 | 1007.9 |
| 20260509081626 | 51 | 57 | 0.0 | 0.0 | 0.00 | 0.00 | 0.00 | 63 | 1007.9 |
| 20260509081126 | 51 | 57 | 0.0 | 0.0 | 0.00 | 0.00 | 0.00 | 63 | 1007.8 |
| 20260509080655 | 52 | 57 | 0.0 | 0.0 | 0.00 | 0.00 | 0.00 | 62 | 1007.9 |
| 20260509080132 | 52 | 57 | 0.0 | 2.0 | 0.00 | 0.00 | 0.00 | 62 | 1007.8 |